Powrót do katalogu

STARLINK-37245

AktywnyŁącznośćVLEO
NORAD 68547·PAYLOAD·🇺🇸 United States

Wystrzelony Apr 2, 2026 z Cape Canaveral Space Force Station

Loading…

Następne Przeloty (najbliższe 24 godziny)

TLE

ŚwieżeSource: CelesTrak SupGP

Epoka: Sep 15, 2026, 03:48 UTC

1 68547C 26070F   26258.15881944 -.00047172  00000+0 -13942-2 0  2589
2 68547  53.1576 198.8125 0001566  88.5576 343.4973 15.34402647    10

Śledź STARLINK-37245 w czasie rzeczywistym z AllMySat

Download on the App Store